User: anonymous   Login
Location: Ostrava
(49.8330°N, 18.2830°E)
Time: 09:29:14
(UTC+01:00)
Language:

Explorer 7 - Orbit

View from above orbital plane
View from above orbital plane
View from above satellite
View from above satellite

Ground track
Ground track

The orbit data is extracted from the following two-line orbital elements,

1 00022U 59009A   16037.54236086  .00002685  00000-0  23033-3 0  9993
2 00022  50.2854   7.4525 0144845 299.9419  58.7211 14.93158538987108
Epoch (UTC): 06 February 2016 13:00:59
Eccentricity: 0.0144845
inclination: 50.2854°
perigee height: 487 km
apogee height: 689 km
right ascension of ascending node: 7.4525°
argument of perigee: 299.9419°
revolutions per day: 14.93158538
mean anomaly at epoch: 58.7211°
orbit number at epoch: 98710

The dashed part of the orbit path shows where the satellite is in the earth's shadow,  

DLR